Location: Newark
(49.4900°N, 20.6656°E)
Time: 07:04:09
(UTC+00:00)

STARLINK-1750 - Pass Details

Date: 24 September 2020
Orbit: 378 x 380 km, 53.0° (Epoch: 24 October)

Event Time Altitude Azimuth Distance (km) Brightness Sun altitude
Exits shadow 03:07:06 19° 301° (WNW) 1,002 4.6 -13.7°
Maximum altitude 03:09:07 49° 12° (NNE) 505 3.6 -13.4°
Drops below altitude 10° 03:12:10 10° 88° (E) 1,403 7.1 -12.9°
Sets 03:14:16 0° 94° (E) 2,255 8.3 -12.5°
